{"data":{"norad_id":62121,"intl_designator":"2024-222H","name":"STARLINK-32525","alt_names":[],"object_type":"PAYLOAD","status":"ACTIVE","operator":null,"country":"US","launch_date":"2024-11-27","launch_site_code":"AFETR","launch_vehicle":null,"mission":null,"orbit_class":"UNKNOWN","rcs_meters":null,"size_class":null,"mass_kg":null,"dimensions":null,"purposes":["comms"],"wikipedia_slug":null,"has_3d_model":false,"image_url":null,"decayed_at":null,"tle_current":{"epoch":"2026-09-21T22:10:07.906368Z","epoch_age_seconds":58582,"freshness":"FRESH","line1":"1 62121U 24222H   26264.92370262  .00019703  00000+0  72311-3 0  9991","line2":"2 62121  42.9992 107.6797 0000740 273.5027  86.5740 15.27601878102775","mean_motion":15.27601878,"eccentricity":7.4e-5,"inclination_deg":42.9992,"raan_deg":107.6797,"arg_perigee_deg":273.5027,"mean_anomaly_deg":86.574,"bstar":0.00072311,"rev_number":10277,"period_min":94.265398644659,"perigee_km":482.47586329556,"apogee_km":483.49130914232,"semimajor_km":6861.1205862189,"source":"CELESTRAK","updated_at":"2026-09-22T09:00:49.525073Z"}}}